Temperature
16 17 17 17 14 10 11 12 11 11 10 10 11 11 10 9 10 10 9 10 10 11 11 11 11 11 12 12 13 13 13 13 13 13 13 13 13 14 14 14 14 14 14 14 14 14 14 14 14
16 17 17 16 11 11 12 11 11 11 10 10 10 10 9 9 8 9 9 9 10 11 11 11 11 11 12 12 12 12 13 13 13 13 13 13 13 13 13 13 13 14 14 14 14 14 14 14 14
16 17 17 10 10 11 12 11 10 10 10 10 9 9 8 8 8 8 8 9 10 10 11 11 11 11 11 12 12 12 12 12 13 13 13 13 13 13 13 13 13 13 13 14 14 14 14 14 14
16 17 14 10 11 10 11 10 10 10 10 9 9 8 7 7 7 8 8 9 10 10 10 11 11 11 11 11 11 12 12 12 12 13 12 12 12 13 13 13 13 13 13 13 13 14 14 14 14
16 16 10 10 10 10 10 10 10 9 9 8 8 7 7 7 7 8 8 9 9 10 10 10 11 11 11 11 11 11 12 12 12 12 12 12 12 12 13 13 13 13 13 13 13 13 13 14 14
16 12 10 10 10 10 9 9 9 8 8 8 7 6 6 7 7 8 8 9 9 9 10 10 10 10 10 11 11 11 11 12 12 12 12 12 12 12 12 12 12 12 12 12 13 13 13 13 13
14 9 9 10 10 10 9 9 8 7 7 7 7 6 6 6 7 7 8 8 9 9 9 9 10 10 10 10 10 11 11 11 11 11 12 12 12 12 12 12 12 12 12 12 12 13 13 13 13
14 8 9 9 9 10 9 8 8 8 6 7 7 6 5 6 6 7 8 8 8 9 9 9 9 9 9 10 10 10 10 10 11 11 11 11 11 11 11 12 12 12 12 12 12 12 12 12 12
14 9 9 9 9 9 8 7 7 7 6 6 6 6 6 6 6 7 7 8 8 8 8 8 8 9 9 9 9 9 10 10 10 10 10 11 11 11 11 11 11 11 11 11 11 12 12 12 12
12 8 9 9 9 8 7 7 6 6 5 5 5 5 5 6 6 7 7 7 7 8 8 8 8 8 8 9 9 9 9 9 10 10 10 10 10 10 10 11 11 11 11 11 11 11 11 11 11
9 8 8 8 8 8 7 6 6 6 5 5 5 5 5 5 6 6 6 6 6 6 7 7 7 7 8 8 8 8 9 9 9 9 9 9 9 10 10 10 10 10 10 11 11 11 11 11 11
7 7 8 8 8 7 6 6 5 5 5 5 5 5 5 5 5 5 5 5 6 6 6 6 6 7 7 7 8 8 8 8 8 8 9 9 9 9 9 10 10 10 10 10 10 10 10 10 10
7 7 7 7 7 6 6 4 4 3 4 5 5 5 5 5 5 5 5 5 5 5 5 6 6 6 7 7 7 7 7 7 7 8 8 8 8 8 9 9 9 9 9 10 10 10 10 10 10
7 7 7 7 7 6 5 4 4 3 4 4 4 4 4 4 4 4 4 5 5 5 5 5 5 6 6 6 6 6 6 7 7 7 7 7 8 8 8 8 8 9 9 9 9 9 9 9 9
7 6 6 6 6 5 6 4 3 3 3 3 3 4 4 4 4 4 4 4 4 4 4 5 5 5 5 5 6 6 6 6 6 6 6 6 7 7 7 7 8 8 8 8 8 8 9 9 9
7 7 7 6 6 5 6 5 3 3 3 2 3 3 3 3 3 3 3 3 3 4 4 4 4 4 4 4 5 5 5 5 5 5 6 6 6 6 7 7 7 7 7 8 8 8 8 8 8
6 6 6 6 5 5 5 4 2 2 2 2 2 2 2 2 2 3 3 3 3 3 3 3 3 4 4 4 4 4 4 5 5 5 5 5 5 5 6 6 6 6 6 7 7 7 7 8 8
6 5 6 6 5 4 4 3 2 2 2 1 1 2 2 2 2 2 2 2 2 3 3 3 3 3 3 3 3 3 4 4 4 4 4 5 5 5 5 5 5 5 6 6 6 6 6 7 7
6 5 6 5 5 4 3 2 2 1 1 1 1 1 1 2 2 2 2 2 2 2 2 2 3 3 3 3 3 3 3 3 4 4 4 4 4 4 4 4 5 5 5 5 5 5 6 6 6
6 6 5 5 4 4 2 2 1 1 0 1 1 1 1 1 1 1 2 2 2 2 2 2 2 2 2 2 2 2 2 2 3 3 3 3 3 3 3 3 4 4 4 4 4 5 5 5 5
6 5 5 5 4 3 3 3 1 0 0 0 0 1 1 1 1 1 1 1 1 1 1 1 1 1 1 1 1 1 1 2 2 2 2 2 2 2 2 3 3 3 3 3 4 4 4 4 4
5 5 5 4 4 3 3 3 2 0 -1 -0 -0 0 0 0 1 1 1 1 1 1 1 1 1 1 1 1 1 1 1 1 1 1 1 1 1 2 2 2 2 2 2 3 3 3 3 3 3
4 4 4 4 3 2 2 2 2 -0 -0 -0 -0 0 0 0 0 0 1 1 0 0 0 0 0 0 0 0 0 -0 -0 -0 -0 -0 0 1 1 1 1 1 1 1 2 2 2 2 2 2 2
3 3 3 1 2 3 2 2 2 0 0 0 -0 -0 0 0 0 0 0 0 0 -0 -0 -0 -0 -0 -0 -0 -1 -1 -1 -1 -1 -1 -1 -0 -0 0 0 0 0 0 1 1 1 1 1 1 1
3 3 3 3 2 3 1 1 2 1 -0 -0 -1 -0 0 -0 -0 -0 -0 -0 -0 -1 -1 -1 -1 -1 -1 -1 -1 -1 -1 -2 -1 -1 -1 -1 -1 -1 -1 -1 -0 -0 -0 -0 -0 -0 0 0 0
2 3 4 4 3 2 1 0 1 -0 -1 -0 -0 -0 -0 -0 -1 -1 -1 -1 -1 -1 -1 -1 -1 -1 -1 -2 -2 -2 -2 -2 -2 -2 -2 -2 -2 -2 -2 -1 -1 -1 -1 -1 -1 -1 -1 -1 -1
2 2 2 1 1 1 1 -0 -0 -1 -1 -2 -1 -1 -1 -1 -1 -1 -1 -1 -1 -1 -1 -2 -2 -2 -2 -2 -2 -3 -3 -3 -3 -3 -3 -3 -3 -3 -3 -2 -2 -2 -2 -2 -2 -2 -2 -1 -1
2 0 0 1 2 2 2 1 1 0 -1 -2 -2 -2 -1 -1 -1 -1 -2 -2 -2 -2 -2 -2 -2 -2 -3 -3 -3 -3 -3 -3 -3 -3 -3 -3 -3 -3 -3 -3 -3 -3 -2 -2 -2 -2 -2 -2 -2
1 1 0 -0 1 1 1 2 1 -0 -1 -2 -2 -1 -1 -1 -1 -2 -2 -2 -2 -2 -3 -3 -3 -3 -3 -3 -3 -4 -4 -4 -4 -4 -4 -4 -4 -4 -4 -4 -4 -3 -3 -3 -3 -3 -3 -3 -3
1 1 -0 1 1 -1 -1 1 -0 -2 -2 -2 -2 -1 -1 -1 -1 -2 -2 -2 -2 -3 -3 -3 -3 -3 -4 -4 -4 -4 -4 -4 -4 -4 -4 -4 -4 -4 -4 -4 -4 -4 -4 -4 -4 -4 -4 -4 -3
Wind_Speed
8 4 3 4 6 6 1 1 1 1 2 2 3 5 7 5 3 3 2 6 8 8 9 9 10 10 11 12 13 14 14 14 14 13 12 12 12 12 12 11 11 11 11 11 11 12 11 12 12
3 2 5 5 5 3 2 1 2 1 3 3 5 5 6 5 4 3 4 7 9 8 10 10 11 11 11 12 13 14 14 14 14 14 13 13 12 12 12 11 11 11 11 11 11 11 11 12 11
2 5 5 5 4 5 4 2 3 2 4 3 4 5 4 4 3 2 4 7 9 10 11 10 12 12 12 12 13 13 14 14 14 14 14 13 13 12 11 12 11 11 11 11 11 11 11 11 11
3 5 6 5 3 1 2 1 3 4 4 5 4 5 4 4 2 2 5 7 8 10 12 11 12 13 14 13 13 13 14 14 14 14 14 14 13 12 12 12 12 11 11 11 11 10 10 11 11
5 5 5 3 1 0 1 1 3 3 3 3 4 4 3 3 6 6 6 8 8 10 12 12 13 13 14 14 14 14 14 14 14 13 13 14 13 13 12 12 13 12 11 11 11 11 10 10 10
5 5 5 3 2 1 2 2 3 4 3 3 4 4 3 4 7 6 6 8 9 10 12 13 13 14 14 14 15 15 15 15 14 14 13 14 14 14 13 12 12 12 12 10 10 10 10 9 9
5 5 4 5 4 2 1 2 4 4 4 2 2 4 2 3 5 5 6 8 10 12 13 14 14 13 13 14 15 15 15 15 15 14 14 13 13 14 14 13 12 12 11 11 10 10 10 10 9
5 5 4 3 5 3 1 3 3 3 3 2 3 5 2 0 3 5 6 7 9 12 13 14 15 15 14 13 14 15 15 15 14 14 14 14 13 13 13 14 12 11 11 11 10 9 9 10 9
4 5 3 5 6 4 2 3 3 4 5 4 4 3 2 4 4 6 7 8 9 10 11 13 14 14 14 13 12 13 14 14 14 14 14 13 13 12 12 13 13 11 11 11 10 10 10 9 9
5 4 4 2 4 5 3 4 4 4 4 3 4 5 5 5 5 7 7 7 8 9 9 11 12 13 13 12 12 12 12 13 14 13 13 12 12 12 12 12 13 12 11 10 10 10 10 9 8
4 4 3 2 3 4 4 3 2 6 2 2 3 4 4 6 6 6 6 6 6 6 7 9 11 12 12 11 11 11 11 12 13 14 13 12 12 12 12 11 12 12 11 10 10 9 9 8 7
5 3 3 2 3 4 4 4 3 3 2 3 5 6 6 6 5 4 5 5 5 6 7 8 10 11 11 11 10 10 10 11 11 12 13 11 10 10 10 10 11 10 9 9 8 8 8 8 7
4 3 3 5 8 6 6 5 4 2 2 5 7 7 6 5 4 3 4 4 5 6 7 7 9 10 10 10 10 10 10 10 11 11 12 11 9 8 9 9 10 10 9 8 8 7 7 7 7
4 5 4 3 4 3 5 3 3 2 4 6 7 5 4 4 3 3 4 4 5 6 6 6 8 9 10 9 9 9 9 9 10 11 11 11 10 9 8 8 9 10 10 8 7 6 5 5 5
4 5 4 2 2 2 5 3 1 4 5 6 5 4 3 3 3 3 2 3 3 4 5 6 7 9 9 9 9 9 9 9 9 10 11 11 10 9 8 7 8 9 10 8 7 7 5 4 4
4 4 1 1 2 1 3 4 2 5 6 5 3 3 2 2 2 2 3 3 4 4 5 6 6 7 8 8 8 8 9 9 10 10 10 10 10 9 8 7 7 9 9 8 5 4 3 3 3
4 1 2 2 1 2 3 4 3 4 6 5 3 2 2 1 2 2 3 3 3 3 4 5 6 6 7 7 7 8 8 9 10 10 10 10 10 9 8 7 8 9 8 7 5 3 2 3 4
3 3 3 4 2 2 2 4 3 4 5 5 4 3 2 2 1 1 2 3 3 4 4 4 5 6 6 6 6 6 7 8 10 10 10 11 10 10 8 7 8 8 6 5 4 3 3 2 3
4 4 3 3 1 2 4 6 6 5 5 5 5 4 4 3 1 1 1 2 3 4 4 5 5 5 5 4 4 4 4 5 6 9 11 11 11 10 9 7 7 7 4 4 5 3 3 3 3
3 2 2 2 0 2 2 6 5 6 7 7 7 7 6 3 1 1 1 2 2 3 3 4 4 4 5 4 3 2 2 3 4 7 10 11 11 10 9 8 6 6 4 5 5 4 2 2 2
2 4 3 3 2 1 2 5 3 3 3 4 5 6 6 6 5 3 1 0 1 2 3 3 4 4 5 5 4 3 3 3 3 5 6 10 11 10 9 8 6 6 4 3 4 3 3 2 2
4 2 2 2 0 3 0 5 6 3 4 6 7 6 6 5 5 3 2 1 0 1 2 3 3 4 5 5 4 4 3 3 4 4 5 8 10 10 9 8 8 6 4 4 4 4 3 2 2
2 1 2 1 2 2 1 3 7 1 5 8 8 8 6 5 5 4 3 2 1 0 1 2 3 3 4 4 3 3 3 3 3 4 5 6 8 9 9 8 7 6 5 5 5 4 3 2 3
3 4 4 4 4 3 4 5 7 5 6 6 6 6 6 5 4 4 3 2 1 0 1 2 2 3 3 3 3 2 3 4 5 5 5 5 5 6 8 8 8 7 6 6 6 5 4 3 4
3 4 3 4 2 6 2 4 8 5 4 5 6 6 5 5 4 4 3 2 2 1 1 1 2 3 3 3 3 2 3 3 4 4 4 5 5 5 7 7 7 7 7 7 7 5 4 4 5
2 4 4 4 5 5 2 6 7 3 2 2 3 3 4 4 4 4 4 3 3 2 1 1 2 3 3 3 3 3 3 3 3 4 4 4 5 6 8 8 7 8 8 8 7 6 5 5 5
4 2 3 4 0 3 6 7 7 1 1 1 1 2 4 4 4 4 3 3 3 3 2 2 2 3 3 3 3 3 3 3 4 4 4 4 5 7 8 8 7 8 8 8 7 5 6 6 6
2 6 4 3 2 5 6 6 5 5 4 3 3 4 4 4 3 3 3 3 2 2 2 2 3 3 4 4 4 4 4 4 4 4 5 5 7 7 8 7 7 8 8 7 6 5 6 6 6
4 3 3 3 3 4 5 7 4 6 6 6 6 5 5 4 4 4 3 2 2 2 2 2 3 3 4 4 4 4 4 5 5 5 5 6 7 7 7 7 7 7 7 7 6 6 6 7 7
4 6 6 4 4 4 3 7 3 4 4 5 5 4 4 4 4 4 3 2 2 2 2 3 3 4 4 4 4 5 5 5 5 6 6 6 7 7 8 7 7 7 8 7 7 8 8 8 8
Wind_Direction
348 16 64 56 59 57 119 263 161 83 66 48 54 85 102 92 93 132 357 5 356 352 359 3 19 32 39 41 41 41 42 43 43 46 47 47 47 51 57 59 56 56 58 62 68 67 66 66 68
350 38 54 59 89 99 260 243 144 132 140 111 57 67 77 72 51 57 3 349 356 4 9 12 30 35 40 43 42 42 41 42 42 43 44 45 45 51 56 55 54 54 56 63 67 68 66 65 67
42 51 77 75 105 160 182 178 152 78 77 76 68 52 72 70 52 28 354 350 7 15 16 20 36 39 41 42 43 42 40 40 41 42 41 42 42 46 51 50 50 51 53 59 65 66 65 65 65
73 49 58 75 118 209 181 152 140 117 69 53 90 77 70 40 21 28 13 13 22 19 20 26 39 41 41 42 42 42 41 40 40 40 39 39 39 43 47 47 45 47 51 53 55 60 62 64 62
57 77 70 69 135 18 47 80 115 98 82 56 88 94 76 28 41 49 31 25 29 21 23 26 39 41 41 41 41 40 40 39 39 38 38 37 37 38 43 45 43 43 47 50 51 52 58 60 60
56 69 94 152 164 116 55 25 91 81 87 80 88 98 90 44 37 32 34 33 31 28 27 27 30 39 41 40 40 39 38 38 37 38 37 37 36 35 36 41 40 39 40 44 49 49 51 56 58
100 95 135 156 153 158 103 66 98 105 91 70 111 111 111 43 28 33 36 39 37 35 31 26 26 30 37 40 39 37 35 35 36 36 36 36 36 35 35 34 35 36 36 40 44 49 49 50 54
112 103 109 151 160 178 116 79 77 94 109 45 71 122 154 346 38 45 42 40 38 34 30 25 24 26 29 33 36 34 32 32 33 34 34 35 35 33 33 30 27 31 33 36 39 46 47 44 45
84 82 153 189 175 171 125 100 65 60 88 57 45 74 104 107 78 58 45 32 29 27 24 22 23 23 25 29 31 32 30 29 28 28 30 32 31 29 29 26 24 25 30 33 36 42 42 42 38
70 127 189 188 164 148 117 104 131 102 75 70 54 52 80 87 79 64 50 33 24 17 14 17 19 20 23 27 28 29 29 27 27 27 27 28 30 28 27 26 25 23 26 29 32 38 39 36 30
81 134 129 73 96 116 112 93 87 122 111 173 156 132 103 87 73 66 55 41 27 16 14 12 15 21 26 25 27 27 27 26 25 24 26 26 29 27 24 23 20 18 22 25 23 30 27 25 24
93 64 87 89 82 89 112 115 79 73 135 115 126 127 111 96 81 70 57 38 27 25 17 12 15 22 24 27 28 28 26 25 23 21 26 28 27 23 19 21 16 16 15 16 19 19 16 16 17
93 102 73 82 79 82 85 82 106 87 92 96 102 102 103 101 84 66 62 49 37 27 16 11 17 22 22 26 26 26 25 25 22 22 25 27 27 20 17 17 16 12 12 12 10 11 11 9 7
111 101 96 72 81 79 100 85 94 163 122 106 107 105 100 97 87 65 51 39 29 23 14 11 22 24 26 26 24 22 22 24 26 24 22 25 27 22 17 16 14 10 6 5 7 7 5 2 360
99 89 60 56 83 123 110 42 173 163 129 115 115 114 100 86 76 74 57 44 30 20 16 17 28 25 26 25 22 19 19 24 26 21 22 24 25 23 20 16 12 4 1 4 10 11 12 13 4
69 79 76 294 103 143 145 240 186 152 139 136 136 127 113 85 69 61 55 46 31 26 23 18 26 26 25 24 20 20 21 25 25 20 20 21 21 21 22 16 8 3 4 7 9 6 9 5 357
48 120 231 266 168 126 170 228 201 166 156 160 163 154 142 98 47 40 49 47 36 29 27 27 24 24 21 20 23 24 26 27 22 21 19 17 18 20 20 13 6 5 6 5 8 4 6 354 346
208 212 229 239 224 135 204 237 213 190 178 179 179 178 180 189 236 28 48 46 38 32 32 33 26 21 16 18 21 23 24 22 21 19 18 17 16 16 18 14 7 7 6 1 0 0 357 345 334
161 175 227 252 219 182 225 245 231 198 192 196 200 198 203 217 209 95 66 49 39 28 28 26 24 13 12 8 4 2 1 358 7 12 14 14 13 13 14 12 8 6 3 351 348 344 346 349 347
139 174 241 298 49 199 262 268 242 207 205 204 202 206 209 209 188 158 86 55 37 22 20 20 17 9 5 1 348 338 330 342 352 2 8 11 11 10 9 8 5 360 356 353 354 354 345 335 4
199 191 216 239 356 41 339 296 233 230 207 210 209 208 207 204 202 200 189 148 40 19 9 12 5 6 4 4 5 3 358 344 352 352 355 360 3 4 4 359 359 357 357 344 338 345 346 315 307
243 227 189 179 131 277 147 283 263 221 235 227 223 216 218 215 202 195 190 191 212 350 6 10 7 7 5 10 21 16 2 344 334 331 335 344 354 356 358 354 354 350 346 332 323 344 319 296 288
195 67 114 143 159 306 248 229 277 191 241 237 227 221 219 213 199 193 192 192 193 87 7 356 4 360 359 6 13 17 1 337 326 329 336 342 343 350 350 349 348 344 337 327 319 319 306 285 272
125 69 61 58 76 277 224 199 271 225 223 230 219 219 212 201 195 192 185 167 179 8 7 360 0 349 350 354 357 3 347 335 334 335 337 337 334 335 341 342 343 337 329 320 313 303 290 277 275
74 87 26 349 336 254 190 217 253 248 229 214 215 221 211 193 185 185 187 197 216 254 298 328 336 330 332 338 338 335 326 318 318 319 324 329 329 323 324 332 329 326 322 318 312 299 285 270 266
179 145 164 221 246 281 257 239 257 273 275 241 216 208 195 191 191 194 200 210 219 233 260 286 293 302 309 318 319 318 316 312 310 309 309 316 312 308 312 319 319 318 317 316 308 296 283 275 265
142 184 155 138 184 277 268 279 297 244 299 244 196 184 204 204 202 201 206 216 226 233 250 259 273 289 297 300 305 306 309 311 307 305 308 307 306 311 316 314 315 313 312 307 301 288 283 276 264
128 145 113 139 212 269 285 272 256 251 242 233 221 220 222 214 213 212 217 229 238 244 260 276 270 276 290 295 297 305 307 307 305 306 307 307 306 309 312 313 314 311 308 305 298 291 285 279 272
134 135 136 141 179 197 270 272 235 223 217 213 225 226 218 217 221 221 229 239 251 264 261 276 285 293 297 299 302 304 303 305 305 300 299 301 303 307 305 306 306 305 303 301 295 291 289 283 282
180 182 160 176 226 200 221 270 286 240 232 215 229 232 220 217 215 215 222 235 256 276 284 282 287 289 292 295 298 299 302 305 303 300 301 302 300 302 301 302 300 299 299 295 289 290 290 283 280
Height
1508 1509 1511 1513 1518 1534 1541 1539 1537 1538 1538 1539 1539 1540 1542 1547 1550 1556 1554 1551 1551 1550 1550 1550 1550 1550 1550 1549 1549 1549 1548 1548 1548 1547 1547 1547 1546 1546 1546 1546 1546 1546 1546 1546 1546 1546 1547 1547 1547
1509 1510 1513 1514 1527 1543 1543 1538 1538 1538 1538 1539 1540 1542 1543 1547 1550 1551 1550 1550 1550 1550 1550 1550 1550 1550 1550 1549 1549 1549 1549 1548 1548 1548 1548 1547 1547 1547 1547 1547 1547 1547 1547 1547 1547 1547 1547 1547 1548
1509 1511 1513 1519 1534 1541 1538 1536 1537 1538 1539 1539 1541 1543 1546 1549 1550 1551 1551 1550 1550 1550 1550 1550 1550 1550 1550 1549 1549 1549 1549 1548 1548 1548 1548 1548 1548 1547 1547 1547 1547 1547 1547 1547 1547 1548 1548 1548 1548
1510 1512 1515 1527 1536 1538 1536 1536 1536 1537 1539 1540 1542 1545 1548 1551 1551 1551 1551 1551 1551 1551 1550 1550 1550 1550 1550 1549 1549 1549 1548 1548 1548 1548 1548 1547 1547 1547 1547 1547 1547 1547 1547 1547 1548 1548 1548 1548 1548
1510 1512 1524 1536 1537 1537 1536 1536 1536 1537 1539 1542 1543 1546 1549 1551 1551 1551 1551 1551 1550 1550 1550 1550 1550 1550 1549 1549 1549 1549 1548 1548 1548 1548 1548 1547 1547 1547 1547 1547 1547 1547 1547 1547 1548 1548 1548 1548 1548
1511 1514 1532 1540 1537 1536 1537 1537 1537 1539 1541 1542 1544 1546 1549 1551 1550 1550 1551 1550 1550 1550 1550 1550 1550 1550 1549 1549 1549 1548 1548 1547 1547 1547 1547 1547 1547 1547 1547 1547 1547 1547 1547 1547 1547 1547 1548 1548 1548
1512 1521 1532 1536 1537 1537 1538 1538 1538 1540 1541 1543 1544 1547 1549 1550 1550 1550 1550 1551 1550 1550 1550 1550 1550 1549 1549 1549 1548 1548 1547 1547 1547 1547 1547 1547 1547 1546 1546 1546 1547 1547 1547 1547 1547 1547 1547 1547 1547
1512 1521 1532 1536 1536 1537 1538 1538 1539 1540 1542 1544 1545 1546 1548 1550 1550 1550 1550 1550 1550 1550 1549 1549 1549 1549 1548 1548 1548 1547 1547 1546 1546 1546 1546 1546 1546 1546 1546 1546 1546 1546 1546 1546 1546 1546 1546 1547 1547
1513 1525 1534 1534 1534 1536 1536 1538 1540 1541 1542 1544 1545 1547 1548 1549 1549 1549 1549 1549 1549 1549 1549 1549 1549 1548 1548 1547 1547 1546 1546 1546 1545 1545 1545 1545 1545 1545 1545 1545 1545 1545 1545 1545 1545 1545 1545 1546 1546
1515 1528 1530 1530 1531 1533 1535 1537 1539 1541 1543 1544 1545 1546 1547 1548 1548 1548 1548 1548 1548 1548 1548 1548 1548 1547 1547 1547 1546 1546 1545 1545 1544 1544 1543 1543 1543 1543 1544 1544 1544 1544 1544 1544 1544 1544 1544 1545 1545
1519 1527 1529 1530 1530 1532 1534 1537 1539 1540 1544 1544 1544 1545 1546 1547 1547 1548 1548 1548 1548 1548 1548 1547 1547 1546 1546 1545 1545 1545 1544 1544 1543 1543 1543 1542 1542 1542 1542 1542 1542 1542 1543 1543 1543 1543 1543 1543 1543
1523 1528 1529 1531 1531 1532 1535 1537 1540 1541 1543 1543 1544 1545 1545 1546 1546 1547 1547 1547 1548 1547 1547 1547 1546 1546 1545 1544 1544 1544 1543 1543 1542 1542 1542 1541 1541 1541 1540 1540 1541 1541 1541 1541 1541 1541 1542 1542 1542
1525 1529 1530 1531 1532 1533 1535 1538 1539 1542 1542 1543 1544 1545 1545 1546 1546 1547 1547 1547 1547 1547 1546 1546 1545 1545 1544 1543 1543 1542 1542 1542 1541 1541 1540 1540 1539 1539 1539 1539 1539 1539 1539 1539 1539 1540 1540 1540 1540
1527 1529 1531 1532 1533 1534 1536 1539 1540 1542 1542 1543 1543 1544 1545 1545 1546 1546 1546 1546 1546 1546 1545 1545 1545 1544 1543 1542 1542 1541 1541 1540 1540 1539 1538 1538 1538 1537 1537 1537 1537 1537 1537 1537 1537 1537 1537 1538 1538
1527 1531 1533 1533 1534 1535 1537 1540 1541 1541 1542 1542 1543 1543 1544 1545 1545 1545 1545 1545 1545 1545 1545 1544 1544 1543 1542 1541 1540 1540 1539 1539 1538 1538 1537 1537 1536 1536 1535 1535 1535 1535 1535 1535 1535 1535 1535 1535 1535
1529 1533 1536 1535 1535 1535 1539 1541 1541 1541 1541 1542 1542 1543 1543 1544 1544 1545 1545 1544 1544 1544 1543 1543 1542 1542 1541 1540 1539 1538 1538 1537 1537 1536 1536 1535 1535 1534 1533 1533 1533 1533 1532 1532 1532 1532 1532 1532 1532
1534 1538 1537 1536 1535 1536 1538 1539 1540 1540 1540 1541 1541 1542 1542 1543 1543 1543 1543 1543 1543 1543 1543 1542 1541 1540 1540 1539 1538 1537 1536 1536 1535 1535 1534 1533 1533 1532 1532 1531 1530 1530 1530 1530 1529 1529 1529 1529 1529
1536 1538 1537 1537 1535 1536 1538 1539 1539 1539 1539 1539 1540 1540 1541 1541 1541 1542 1542 1542 1542 1542 1542 1541 1540 1539 1538 1537 1537 1536 1535 1534 1533 1533 1532 1531 1530 1530 1529 1529 1528 1528 1527 1527 1527 1526 1526 1526 1526
1532 1535 1536 1535 1534 1536 1537 1537 1537 1537 1537 1537 1538 1538 1538 1539 1540 1541 1541 1541 1541 1541 1540 1539 1539 1538 1537 1535 1534 1533 1532 1532 1531 1530 1530 1529 1528 1527 1527 1526 1525 1525 1524 1524 1524 1523 1523 1523 1523
1531 1533 1535 1535 1534 1536 1538 1536 1534 1534 1534 1534 1534 1535 1536 1537 1538 1539 1539 1539 1539 1539 1539 1538 1537 1536 1535 1534 1533 1532 1531 1530 1529 1528 1527 1527 1526 1525 1524 1523 1523 1522 1521 1521 1521 1520 1519 1519 1520
1531 1533 1534 1535 1536 1536 1538 1534 1533 1531 1531 1532 1532 1532 1533 1534 1535 1536 1536 1537 1537 1537 1536 1536 1535 1534 1533 1532 1531 1530 1529 1528 1527 1525 1524 1524 1523 1522 1521 1520 1520 1519 1518 1518 1518 1517 1516 1516 1517
1531 1531 1532 1534 1538 1540 1539 1540 1529 1530 1530 1529 1528 1529 1529 1531 1532 1533 1534 1534 1535 1535 1535 1534 1534 1533 1532 1531 1529 1528 1526 1525 1524 1523 1521 1520 1520 1519 1518 1517 1516 1516 1515 1515 1514 1514 1514 1513 1513
1531 1531 1533 1534 1537 1542 1542 1543 1530 1530 1528 1525 1524 1525 1526 1528 1529 1530 1531 1532 1533 1533 1533 1533 1532 1531 1530 1529 1527 1526 1524 1523 1522 1520 1519 1517 1516 1515 1514 1514 1513 1512 1512 1511 1511 1510 1510 1510 1510
1531 1533 1536 1540 1542 1542 1540 1543 1528 1527 1521 1519 1520 1521 1522 1524 1526 1527 1529 1530 1531 1531 1531 1530 1529 1528 1527 1526 1525 1523 1522 1520 1519 1517 1516 1514 1513 1512 1511 1510 1509 1508 1508 1507 1507 1506 1506 1506 1506
1531 1536 1541 1541 1545 1539 1539 1539 1526 1518 1516 1516 1517 1518 1519 1521 1523 1524 1525 1527 1527 1528 1528 1527 1526 1525 1525 1523 1521 1520 1519 1517 1516 1514 1512 1510 1509 1508 1507 1506 1505 1504 1503 1503 1502 1502 1501 1501 1501
1534 1534 1539 1541 1542 1540 1540 1538 1521 1516 1515 1514 1515 1516 1517 1519 1520 1522 1523 1524 1524 1525 1525 1524 1523 1522 1521 1520 1518 1517 1516 1514 1512 1511 1509 1507 1506 1504 1503 1501 1500 1500 1499 1498 1497 1497 1496 1496 1496
1534 1537 1537 1544 1548 1549 1538 1532 1521 1515 1514 1514 1514 1515 1515 1517 1518 1519 1521 1521 1522 1522 1522 1521 1520 1519 1518 1517 1515 1514 1512 1511 1509 1508 1505 1504 1502 1501 1499 1497 1496 1495 1494 1493 1492 1491 1490 1490 1490
1531 1536 1542 1543 1541 1540 1533 1531 1522 1514 1513 1513 1513 1513 1514 1515 1517 1517 1518 1519 1519 1519 1519 1519 1517 1516 1515 1514 1512 1511 1509 1507 1505 1503 1502 1500 1499 1497 1495 1493 1491 1490 1489 1488 1487 1486 1485 1484 1484
1534 1537 1538 1543 1543 1542 1538 1524 1512 1511 1509 1511 1511 1511 1512 1513 1514 1516 1516 1517 1517 1517 1516 1515 1514 1513 1512 1510 1509 1507 1505 1503 1501 1499 1498 1496 1494 1492 1490 1488 1486 1485 1484 1483 1481 1480 1479 1478 1477
1529 1531 1536 1537 1540 1546 1545 1526 1509 1509 1508 1508 1509 1510 1511 1512 1513 1514 1514 1514 1514 1513 1513 1512 1511 1510 1508 1507 1505 1503 1501 1499 1497 1495 1494 1492 1490 1487 1485 1483 1482 1480 1479 1477 1476 1474 1473 1472 1470